DELTA 1 DEB, 7043

Orbit data source: Space-Track

DELTA 1 DEB, 7043 is space debris in SSO originally from a launch on Tue, 06 Nov 1973 UTC launched from the Air Force Western Test Range (AFWTR). Debris objects in space refer to the collection of defunct objects orbiting the Earth. Examples of debris include non-operational satellites, rocket bodies, and fragments generated from explosions, collisions, or faulty payload assembly.

Loading next visibility...
Identifier
7043, 1973-086AK
Orbit
SSO
Last TLE update
18 hours ago
Origin
Manufacturer
Unknown
Mission
Spacecraft
Bus & Motor
Unknown
Mass
Unknown
Launch date (UTC)
1973-11-06 (52 years ago)
Launch vehicle
Unknown
Launch site
Air Force Western Test Range (AFWTR)
Object type
Payload
Rocket body
Debris
Shape & HBR
Unknown
Radar Cross Section
Small (<0.1 m²)

Expand to show TLE details & history

TLE from 18 hours ago
0 DELTA 1 DEB
1 07043U 73086AK  25189.57966977  .00000087  00000-0  51267-3 0  9998
2 07043 102.1672 219.4050 0216849 209.1657 307.3340 12.85329287420436
Epoch: 2025-07-08T13:54Z
TLE epoch observation values (Epoch: 2025-07-08T13:54:43.468Z)
Latitude
24.92586°
Longitude
-90.32724°
Altitude
1,223.935 km
Speed
7.291 km/s
True Right ascension
03h 00m 30s
True Declination
24° 48' 10"
Sunlit
Object was in daylight at epoch
Visualization orbit readout
Latitude
-7.13186°
Longitude
86.2967°
Altitude
1,459.787 km
Speed
7.069 km/s
Apparent Right ascension
12h 24m 26s
Apparent Declination
-31° 37' 48"
Sunlit
Object is in daylight
Visualization observer readout
Local Sidereal Time
19:53:41
Azimuth
256.109° W
Elevation
-35.764°
Doppler factor
1
Orbital elements
Apogee altitude
1,484.524 km
Perigee altitude
1,150.759 km
Semi-major axis
7,695.778 km
Eccentricity
0.02168
Inclination
102.1672°
RAAN
219.405°
Arg. of periapsis
209.1657°
True anomaly
Unknown
Mean anomaly
307.334°
Eccentric anomaly
Unknown
Mean motion
3.21488 °/min
Orbital period
111.98 mins
BSTAR
0.00051267
Loading maneuver chart data...
Loading SW <> Apogee altitude chart data...
Loading historical data...
Loading historical data...
Loading historical data...
Loading historical data...
Loading historical data...
Loading historical data...
Loading historical data...

DELTA 1 DEB Visibility forecast

Observer location: undefined°, undefined°

Span
Click to sort rows by Start time (UTC) header in descending order
Start Az.
Max El. time (UTC)
Max El. Az.
Max El.
End time (UTC)
End Az.
12 mins2025-07-09 14:02:08.892Z39.571° NE2025-07-09 14:08:08.892Z101.652° ESE28.938°2025-07-09 14:14:08.892Z160.381° S
12 mins2025-07-09 15:52:08.892Z3.774° NNE2025-07-09 15:58:08.892Z295.445° NW36.412°2025-07-09 16:04:08.892Z228.348° WSW
13 mins2025-07-10 00:44:08.892Z121.081° SE2025-07-10 00:50:08.892Z59.436° ENE33.984°2025-07-10 00:57:08.892Z356.427° N
14 mins2025-07-10 02:33:08.892Z190.68° SSW2025-07-10 02:40:08.892Z265.296° W36.199°2025-07-10 02:47:08.892Z328.726° NNW
|